Showing default

OPS 0340, 2125

Orbit data source: Space-Track

OPS 0340, 2125 is a payload satellite owned by USAF SSD (US) in SSO that was launched on Thu, 31 Mar 1966 UTC via a THOR BURNER 1 launch vehicle from the Air Force Western Test Range (AFWTR). Payloads include a variety of satellites, spacecraft, and rockets equipped with specific instruments for various scientific and technological missions. These include communications satellites like Starlink; space stations such as the ISS; scientific satellites like the Hubble; Earth observation satellites from companies like Planet Labs, Umbra, and HawkEye 360; GPS; miniature CubeSats for education and research; and military/defense satellites.

Loading next visibility...
OPS 0340 details
Identifier
2125, 1966-026A
Orbit
SSO
Last TLE update15 hours ago
Origin
Flag of USUSAF SSD (US)
ManufacturerRCA/East Windsor
MissionDefense Weather
Bus & MotorP35?, Unknown motor
Mass72 kg wet, 72 kg dry
Launch date (UTC)
1966-03-31 (59 years ago)
Launch vehicle
THOR BURNER 1
Launch site
Air Force Western Test Range (AFWTR)
Object type
Payload
Rocket body
Debris
Shape & HBRCyl, 0.6 m
Radar Cross Section0.377 m², Medium (>0.1 m² and < 1m²)

Expand to show TLE details & history

TLE from 15 hours ago
0 OPS 0340
1 02125U 66026A   24355.89241612  .00001880  00000-0  34800-3 0  9997
2 02125  97.9903 171.0422 0150004 148.4215 212.6096 14.59457889 80263
Epoch: 2024-12-20T21:25Z
Definitive object data (Epoch: 2024-12-20T21:25:04.752Z)
Latitude-0.00002°
Longitude119.821°
Altitude787.763 km
Speed7.412 km/s
True Right ascension11h 24m 10s
True Declination0° 00' 00"
Sunlit
Object was in daylight at TLE epoch
Visualization TLE readout
Latitude-32.26026°
Longitude125.46549°
Altitude813.165 km
Speed7.389 km/s
Apparent Right ascension14h 03m 54s
Apparent Declination-79° 01' 29"
Sunlit
Object is in daylight
Visualization observer readout
Local Sidereal Time11:06:12
Azimuth170.987° S
Elevation-31.712°
Doppler factor1
Orbital elements
Apogee altitude798.051 km
Perigee altitude585.942 km
Semi-major axis7,070.133 km
Eccentricity0.0150004
Inclination97.9903°
RAAN171.0422°
Arg. of periapsis148.4215°
True anomaly211.6977°
Mean anomaly212.6096°
Eccentric anomaly212.15222°
Mean motion3.65092 °/min
BSTAR0.000348
Orbital period98.61 mins
Loading maneuver chart data...
Loading historical data...
Loading historical data...
Loading historical data...
Loading historical data...
Loading historical data...
Loading historical data...
Loading historical data...

OPS 0340 Visibility forecast

Observer location: undefined°, undefined

Span
Click to sort rows by Start time (UTC) header in descending order
Start Az.
Max El. time (UTC)
Max El. Az.
Max El.
End time (UTC)
End Az.
8 mins2024-12-21 12:20:27.813Z188.551° SSW2024-12-21 12:24:27.813Z256.07° W36.582°2024-12-21 12:28:27.813Z332.212° NNW
6 mins2024-12-22 00:20:27.813Z37.501° NE2024-12-22 00:23:27.813Z116.182° SE32.049°2024-12-22 00:26:27.813Z167.03° S
7 mins2024-12-22 11:24:27.813Z134.282° SE2024-12-22 11:27:27.813Z71.43° E34.854°2024-12-22 11:31:27.813Z2.97° NNE
|